Time,TemperatureF,DewpointF,PressureIn,WindDirection,WindDirectionDegrees,WindSpeedMPH,WindSpeedGustMPH,Humidity,HourlyPrecipIn,Conditions,Clouds,dailyrainin,SoftwareType,DateUTC
2013-05-30 00:02:00,74.1,65.3,24.24,SW,236,0.0,1.0,74,0.00,,,0.00,Wunderground v.1.15,2013-05-30 05:02:00,
2013-05-30 00:07:00,74.1,65.3,24.24,SW,227,0.0,1.0,74,0.00,,,0.00,Wunderground v.1.15,2013-05-30 05:07:00,
2013-05-30 00:12:00,74.2,65.4,24.24,ENE,71,0.0,1.0,74,0.00,,,0.00,Wunderground v.1.15,2013-05-30 05:12:00,
2013-05-30 00:18:00,74.2,65.4,24.24,South,173,0.0,1.0,74,0.00,,,0.00,Wunderground v.1.15,2013-05-30 05:18:00,
2013-05-30 00:23:00,74.2,65.4,24.24,South,185,0.0,2.0,74,0.00,,,0.00,Wunderground v.1.15,2013-05-30 05:23:00,
2013-05-30 00:28:00,74.3,65.5,24.24,NNE,31,2.0,2.0,74,0.00,,,0.00,Wunderground v.1.15,2013-05-30 05:28:00,
2013-05-30 00:33:00,74.3,65.5,24.24,SSW,205,0.0,11.0,74,0.00,,,0.00,Wunderground v.1.15,2013-05-30 05:33:00,
2013-05-30 00:39:00,74.4,65.2,24.24,SW,236,0.0,11.0,73,0.00,,,0.00,Wunderground v.1.15,2013-05-30 05:39:00,
2013-05-30 00:44:00,74.4,65.2,24.24,NW,310,0.0,1.0,73,0.00,,,0.00,Wunderground v.1.15,2013-05-30 05:44:00,
2013-05-30 00:49:00,74.4,65.2,24.24,WSW,241,1.0,3.0,73,0.00,,,0.00,Wunderground v.1.15,2013-05-30 05:49:00,
2013-05-30 00:55:00,74.5,65.3,24.24,South,171,0.0,4.0,73,0.00,,,0.00,Wunderground v.1.15,2013-05-30 05:55:00,
2013-05-30 01:00:00,74.5,65.3,24.24,North,360,0.0,1.0,73,0.00,,,0.00,Wunderground v.1.15,2013-05-30 06:00:00,
2013-05-30 01:05:00,74.6,65.4,24.24,SSW,203,3.0,3.0,73,0.00,,,0.00,Wunderground v.1.15,2013-05-30 06:05:00,
2013-05-30 01:11:00,74.6,65.4,24.24,SW,227,3.0,3.0,73,0.00,,,0.00,Wunderground v.1.15,2013-05-30 06:11:00,
2013-05-30 01:16:00,74.6,65.4,24.24,North,360,0.0,3.0,73,0.00,,,0.00,Wunderground v.1.15,2013-05-30 06:16:00,
2013-05-30 01:21:00,74.5,65.3,24.24,SW,220,3.0,3.0,73,0.00,,,0.00,Wunderground v.1.15,2013-05-30 06:21:00,
2013-05-30 01:26:00,74.5,65.3,24.24,SW,217,1.0,4.0,73,0.00,,,0.00,Wunderground v.1.15,2013-05-30 06:26:00,
2013-05-30 01:32:00,74.5,65.3,24.24,South,187,0.0,2.0,73,0.00,,,0.00,Wunderground v.1.15,2013-05-30 06:32:00,
2013-05-30 01:37:00,74.4,65.2,24.24,ENE,57,0.0,2.0,73,0.00,,,0.00,Wunderground v.1.15,2013-05-30 06:37:00,
2013-05-30 01:42:00,74.4,65.6,24.24,NNE,22,1.0,1.0,74,0.00,,,0.00,Wunderground v.1.15,2013-05-30 06:42:00,
2013-05-30 01:49:00,74.4,65.2,24.24,NE,55,0.0,4.0,73,0.00,,,0.00,Wunderground v.1.15,2013-05-30 06:49:00,
2013-05-30 01:54:00,74.4,65.6,24.24,South,186,4.0,4.0,74,0.00,,,0.00,Wunderground v.1.15,2013-05-30 06:54:00,
2013-05-30 02:00:00,74.5,65.7,24.24,SSW,192,2.0,2.0,74,0.00,,,0.00,Wunderground v.1.15,2013-05-30 07:00:00,
2013-05-30 02:05:00,74.5,65.7,24.24,North,360,0.0,6.0,74,0.00,,,0.00,Wunderground v.1.15,2013-05-30 07:05:00,
2013-05-30 02:10:00,74.6,65.8,24.24,SW,214,0.0,1.0,74,0.00,,,0.00,Wunderground v.1.15,2013-05-30 07:10:00,
2013-05-30 02:15:00,74.6,65.8,24.24,SW,219,0.0,3.0,74,0.00,,,0.00,Wunderground v.1.15,2013-05-30 07:15:00,
2013-05-30 02:20:00,74.6,65.8,24.24,NE,56,0.0,1.0,74,0.00,,,0.00,Wunderground v.1.15,2013-05-30 07:20:00,
2013-05-30 02:25:00,74.5,65.7,24.24,South,190,0.0,9.0,74,0.00,,,0.00,Wunderground v.1.15,2013-05-30 07:25:00,
2013-05-30 02:30:00,73.8,64.6,24.24,East,82,0.0,1.0,73,6.55,,,0.15,Wunderground v.1.15,2013-05-30 07:30:00,
2013-05-30 02:35:00,71.6,63.3,24.24,ENE,71,0.0,4.0,75,0.35,,,0.18,Wunderground v.1.15,2013-05-30 07:35:00,
2013-05-30 02:40:00,70.1,62.9,24.24,ESE,104,2.0,5.0,78,0.38,,,0.20,Wunderground v.1.15,2013-05-30 07:40:00,
2013-05-30 02:45:00,69.0,62.6,24.25,East,96,0.0,5.0,80,0.16,,,0.21,Wunderground v.1.15,2013-05-30 07:45:00,
2013-05-30 02:50:00,68.2,62.5,24.25,East,96,0.0,1.0,82,0.12,,,0.22,Wunderground v.1.15,2013-05-30 07:50:00,
2013-05-30 02:55:00,67.7,62.3,24.25,ENE,61,0.0,1.0,83,0.06,,,0.22,Wunderground v.1.15,2013-05-30 07:55:00,
2013-05-30 03:00:00,67.3,62.0,24.25,ENE,62,0.0,0.0,83,0.04,,,0.22,Wunderground v.1.15,2013-05-30 08:00:00,
2013-05-30 03:05:00,67.0,62.0,24.25,ENE,61,0.0,0.0,84,0.26,,,0.24,Wunderground v.1.15,2013-05-30 08:05:00,
2013-05-30 03:10:00,66.7,61.7,24.25,ENE,61,0.0,0.0,84,0.11,,,0.24,Wunderground v.1.15,2013-05-30 08:10:00,
2013-05-30 03:15:00,66.5,61.8,24.25,ENE,61,0.0,0.0,85,0.23,,,0.26,Wunderground v.1.15,2013-05-30 08:15:00,
2013-05-30 03:20:00,66.3,61.7,24.25,ENE,62,0.0,0.0,85,0.09,,,0.27,Wunderground v.1.15,2013-05-30 08:20:00,
2013-05-30 03:25:00,66.1,61.8,24.25,ENE,62,0.0,0.0,86,0.15,,,0.28,Wunderground v.1.15,2013-05-30 08:25:00,
2013-05-30 03:30:00,65.9,61.6,24.25,ENE,61,0.0,0.0,86,0.09,,,0.28,Wunderground v.1.15,2013-05-30 08:30:00,
2013-05-30 03:35:00,65.7,61.7,24.25,ENE,62,0.0,0.0,87,0.05,,,0.28,Wunderground v.1.15,2013-05-30 08:35:00,
2013-05-30 03:40:00,65.5,61.5,24.25,ENE,62,0.0,0.0,87,0.04,,,0.28,Wunderground v.1.15,2013-05-30 08:40:00,
2013-05-30 03:45:00,65.3,61.3,24.25,ENE,61,0.0,1.0,87,0.00,,,0.28,Wunderground v.1.15,2013-05-30 08:45:00,
2013-05-30 03:50:00,65.1,61.5,24.25,ENE,61,0.0,0.0,88,0.00,,,0.29,Wunderground v.1.15,2013-05-30 08:50:00,
2013-05-30 03:56:00,64.9,61.3,24.25,SSW,193,0.0,1.0,88,0.13,,,0.30,Wunderground v.1.15,2013-05-30 08:56:00,
2013-05-30 04:01:00,64.7,61.1,24.25,South,184,0.0,0.0,88,0.06,,,0.30,Wunderground v.1.15,2013-05-30 09:01:00,
2013-05-30 04:06:00,64.5,60.9,24.25,South,182,0.0,1.0,88,0.04,,,0.30,Wunderground v.1.15,2013-05-30 09:06:00,
2013-05-30 04:11:00,64.3,60.7,24.25,South,182,0.0,0.0,88,0.00,,,0.30,Wunderground v.1.15,2013-05-30 09:11:00,
2013-05-30 04:16:00,64.1,60.5,24.25,South,182,0.0,0.0,88,0.00,,,0.30,Wunderground v.1.15,2013-05-30 09:16:00,
2013-05-30 04:21:00,64.0,60.7,24.25,South,182,0.0,0.0,89,0.24,,,0.32,Wunderground v.1.15,2013-05-30 09:21:00,
2013-05-30 04:26:00,63.9,60.6,24.25,South,182,0.0,0.0,89,0.11,,,0.32,Wunderground v.1.15,2013-05-30 09:26:00,
2013-05-30 04:31:00,63.8,60.5,24.25,South,181,0.0,0.0,89,0.06,,,0.32,Wunderground v.1.15,2013-05-30 09:31:00,
2013-05-30 04:36:00,63.8,60.5,24.25,South,181,0.0,0.0,89,0.04,,,0.32,Wunderground v.1.15,2013-05-30 09:36:00,
2013-05-30 04:41:00,63.7,60.7,24.25,South,171,0.0,1.0,90,0.00,,,0.32,Wunderground v.1.15,2013-05-30 09:41:00,
2013-05-30 04:46:00,63.7,60.7,24.25,ESE,122,0.0,1.0,90,0.00,,,0.32,Wunderground v.1.15,2013-05-30 09:46:00,
2013-05-30 04:51:00,63.7,60.7,24.25,East,84,0.0,1.0,90,0.00,,,0.32,Wunderground v.1.15,2013-05-30 09:51:00,
2013-05-30 04:56:00,63.7,60.7,24.25,NE,55,0.0,3.0,90,0.00,,,0.32,Wunderground v.1.15,2013-05-30 09:56:00,
2013-05-30 05:01:00,63.7,61.0,24.25,NE,55,0.0,0.0,91,0.00,,,0.32,Wunderground v.1.15,2013-05-30 10:01:00,
2013-05-30 05:06:00,63.6,60.9,24.25,SW,219,0.0,2.0,91,0.00,,,0.32,Wunderground v.1.15,2013-05-30 10:06:00,
2013-05-30 05:11:00,63.6,60.9,24.25,East,82,0.0,1.0,91,0.00,,,0.32,Wunderground v.1.15,2013-05-30 10:11:00,
2013-05-30 05:16:00,63.6,60.9,24.25,East,82,0.0,1.0,91,0.00,,,0.32,Wunderground v.1.15,2013-05-30 10:16:00,
2013-05-30 05:21:00,63.5,60.8,24.25,East,82,0.0,0.0,91,0.00,,,0.32,Wunderground v.1.15,2013-05-30 10:21:00,
2013-05-30 05:26:00,63.4,60.7,24.25,East,84,0.0,1.0,91,0.00,,,0.32,Wunderground v.1.15,2013-05-30 10:26:00,
2013-05-30 05:31:00,63.4,60.7,24.25,East,84,0.0,1.0,91,0.00,,,0.32,Wunderground v.1.15,2013-05-30 10:31:00,
2013-05-30 05:36:00,63.3,60.6,24.25,East,84,0.0,1.0,91,0.00,,,0.32,Wunderground v.1.15,2013-05-30 10:36:00,
2013-05-30 05:41:00,63.2,60.5,24.25,ENE,76,0.0,0.0,91,0.00,,,0.32,Wunderground v.1.15,2013-05-30 10:41:00,
2013-05-30 05:46:00,63.2,60.5,24.25,ENE,75,1.0,1.0,91,0.00,,,0.32,Wunderground v.1.15,2013-05-30 10:46:00,
2013-05-30 05:51:00,63.2,60.8,24.25,SSW,197,0.0,0.0,92,0.00,,,0.32,Wunderground v.1.15,2013-05-30 10:51:00,
2013-05-30 05:56:00,63.1,60.7,24.25,North,351,0.0,2.0,92,0.00,,,0.32,Wunderground v.1.15,2013-05-30 10:56:00,
2013-05-30 06:01:00,63.1,60.7,24.25,North,350,0.0,0.0,92,0.00,,,0.32,Wunderground v.1.15,2013-05-30 11:01:00,
2013-05-30 06:06:00,63.1,60.7,24.25,North,351,0.0,0.0,92,0.00,,,0.32,Wunderground v.1.15,2013-05-30 11:06:00,
2013-05-30 06:11:00,63.1,60.7,24.25,North,351,0.0,1.0,92,0.00,,,0.32,Wunderground v.1.15,2013-05-30 11:11:00,
2013-05-30 06:16:00,63.1,60.7,24.25,North,350,0.0,2.0,92,0.00,,,0.32,Wunderground v.1.15,2013-05-30 11:16:00,
2013-05-30 06:21:00,63.1,60.7,24.25,North,351,0.0,1.0,92,0.00,,,0.32,Wunderground v.1.15,2013-05-30 11:21:00,
2013-05-30 06:26:00,63.1,60.7,24.25,North,350,0.0,1.0,92,0.00,,,0.32,Wunderground v.1.15,2013-05-30 11:26:00,
2013-05-30 06:31:00,63.1,60.7,24.25,North,351,0.0,0.0,92,0.00,,,0.32,Wunderground v.1.15,2013-05-30 11:31:00,
2013-05-30 06:36:00,63.1,60.7,24.25,North,351,0.0,0.0,92,0.00,,,0.32,Wunderground v.1.15,2013-05-30 11:36:00,
2013-05-30 06:41:00,63.1,60.7,24.25,North,350,0.0,0.0,92,0.00,,,0.32,Wunderground v.1.15,2013-05-30 11:41:00,
2013-05-30 06:46:00,63.1,60.7,24.25,North,351,0.0,0.0,92,0.00,,,0.32,Wunderground v.1.15,2013-05-30 11:46:00,
2013-05-30 06:51:00,63.1,61.0,24.25,North,351,0.0,0.0,93,0.00,,,0.32,Wunderground v.1.15,2013-05-30 11:51:00,
2013-05-30 06:56:00,63.2,61.1,24.25,North,350,0.0,0.0,93,0.00,,,0.32,Wunderground v.1.15,2013-05-30 11:56:00,
2013-05-30 07:01:00,63.3,61.2,24.25,North,351,0.0,0.0,93,0.00,,,0.32,Wunderground v.1.15,2013-05-30 12:01:00,
2013-05-30 07:06:00,63.4,61.3,24.25,NE,55,0.0,1.0,93,0.00,,,0.32,Wunderground v.1.15,2013-05-30 12:06:00,
2013-05-30 07:11:00,63.5,61.4,24.25,ESE,113,0.0,4.0,93,0.00,,,0.32,Wunderground v.1.15,2013-05-30 12:11:00,
2013-05-30 07:16:00,63.6,61.5,24.25,ENE,63,0.0,4.0,93,0.00,,,0.32,Wunderground v.1.15,2013-05-30 12:16:00,
2013-05-30 07:21:00,63.7,61.6,24.25,ENE,63,0.0,1.0,93,0.00,,,0.32,Wunderground v.1.15,2013-05-30 12:21:00,
2013-05-30 07:26:00,63.8,61.7,24.25,ESE,114,4.0,4.0,93,0.00,,,0.32,Wunderground v.1.15,2013-05-30 12:26:00,
2013-05-30 07:31:00,64.1,62.0,24.25,West,280,0.0,1.0,93,0.00,,,0.32,Wunderground v.1.15,2013-05-30 12:31:00,
2013-05-30 07:36:00,64.8,62.7,24.25,East,94,0.0,1.0,93,0.00,,,0.32,Wunderground v.1.15,2013-05-30 12:36:00,
2013-05-30 07:41:00,65.3,63.2,24.25,SSW,201,0.0,1.0,93,0.00,,,0.32,Wunderground v.1.15,2013-05-30 12:41:00,
2013-05-30 07:46:00,65.9,63.8,24.25,ENE,65,0.0,1.0,93,0.00,,,0.32,Wunderground v.1.15,2013-05-30 12:46:00,
2013-05-30 07:51:00,66.3,64.2,24.25,ENE,59,0.0,0.0,93,0.00,,,0.32,Wunderground v.1.15,2013-05-30 12:51:00,
2013-05-30 07:56:00,66.5,64.4,24.25,WSW,238,0.0,2.0,93,0.00,,,0.32,Wunderground v.1.15,2013-05-30 12:56:00,
2013-05-30 08:01:00,67.1,65.0,24.25,SSW,192,0.0,1.0,93,0.00,,,0.32,Wunderground v.1.15,2013-05-30 13:01:00,
2013-05-30 08:06:00,67.7,65.3,24.25,SSW,208,0.0,6.0,92,0.00,,,0.32,Wunderground v.1.15,2013-05-30 13:06:00,
2013-05-30 08:11:00,68.5,66.1,24.25,WSW,242,0.0,1.0,92,0.00,,,0.32,Wunderground v.1.15,2013-05-30 13:11:00,
2013-05-30 08:16:00,69.3,66.9,24.25,ENE,69,0.0,4.0,92,0.00,,,0.32,Wunderground v.1.15,2013-05-30 13:16:00,
2013-05-30 08:21:00,70.1,67.3,24.25,NE,42,0.0,3.0,91,0.00,,,0.32,Wunderground v.1.15,2013-05-30 13:21:00,
2013-05-30 08:26:00,70.6,67.2,24.25,South,178,0.0,7.0,89,0.00,,,0.32,Wunderground v.1.15,2013-05-30 13:26:00,
2013-05-30 08:31:00,71.5,68.1,24.25,East,94,2.0,2.0,89,0.00,,,0.32,Wunderground v.1.15,2013-05-30 13:31:00,
2013-05-30 08:36:00,72.2,68.1,24.25,ENE,61,1.0,3.0,87,0.00,,,0.32,Wunderground v.1.15,2013-05-30 13:36:00,
2013-05-30 08:41:00,72.9,68.5,24.25,NE,48,0.0,3.0,86,0.00,,,0.32,Wunderground v.1.15,2013-05-30 13:41:00,
2013-05-30 08:46:00,73.4,68.6,24.24,NNE,22,4.0,9.0,85,0.00,,,0.32,Wunderground v.1.15,2013-05-30 13:46:00,
2013-05-30 08:51:00,74.0,68.9,24.24,East,80,1.0,1.0,84,0.00,,,0.32,Wunderground v.1.15,2013-05-30 13:51:00,
2013-05-30 08:56:00,74.5,68.6,24.24,NNE,15,4.0,5.0,82,0.00,,,0.32,Wunderground v.1.15,2013-05-30 13:56:00,
2013-05-30 09:01:00,75.1,68.9,24.24,SSW,194,0.0,6.0,81,0.00,,,0.32,Wunderground v.1.15,2013-05-30 14:01:00,
2013-05-30 09:06:00,75.5,68.9,24.24,NE,49,0.0,6.0,80,0.00,,,0.32,Wunderground v.1.15,2013-05-30 14:06:00,
2013-05-30 09:11:00,75.8,69.2,24.24,ENE,57,0.0,3.0,80,0.00,,,0.32,Wunderground v.1.15,2013-05-30 14:11:00,
2013-05-30 09:16:00,76.1,68.7,24.24,ENE,62,1.0,7.0,78,0.00,,,0.32,Wunderground v.1.15,2013-05-30 14:16:00,
2013-05-30 09:22:00,76.4,69.0,24.24,NNE,31,8.0,8.0,78,0.00,,,0.32,Wunderground v.1.15,2013-05-30 14:22:00,
2013-05-30 09:27:00,76.9,68.8,24.24,South,184,1.0,8.0,76,0.00,,,0.32,Wunderground v.1.15,2013-05-30 14:27:00,
2013-05-30 09:32:00,77.2,69.4,24.24,NE,38,0.0,6.0,77,0.00,,,0.32,Wunderground v.1.15,2013-05-30 14:32:00,
2013-05-30 09:37:00,77.8,69.6,24.24,WNW,300,2.0,6.0,76,0.00,,,0.32,Wunderground v.1.15,2013-05-30 14:37:00,
2013-05-30 09:42:00,78.1,69.5,24.24,ESE,113,4.0,5.0,75,0.00,,,0.32,Wunderground v.1.15,2013-05-30 14:42:00,
2013-05-30 09:47:00,78.2,69.2,24.24,SW,214,3.0,8.0,74,0.00,,,0.32,Wunderground v.1.15,2013-05-30 14:47:00,
2013-05-30 09:52:00,78.2,68.8,24.24,SE,143,1.0,5.0,73,0.00,,,0.32,Wunderground v.1.15,2013-05-30 14:52:00,
2013-05-30 09:57:00,78.4,69.0,24.24,SSW,213,2.0,5.0,73,0.00,,,0.32,Wunderground v.1.15,2013-05-30 14:57:00,
2013-05-30 10:02:00,78.7,68.9,24.24,West,274,1.0,4.0,72,0.00,,,0.32,Wunderground v.1.15,2013-05-30 15:02:00,
2013-05-30 10:07:00,78.9,69.5,24.24,WSW,250,0.0,15.0,73,0.00,,,0.32,Wunderground v.1.15,2013-05-30 15:07:00,
2013-05-30 10:12:00,79.2,69.0,24.24,South,190,3.0,13.0,71,0.00,,,0.32,Wunderground v.1.15,2013-05-30 15:12:00,
2013-05-30 10:17:00,79.2,69.0,24.24,East,90,0.0,13.0,71,0.00,,,0.32,Wunderground v.1.15,2013-05-30 15:17:00,
2013-05-30 10:22:00,78.8,68.2,24.24,NW,312,1.0,6.0,70,0.00,,,0.32,Wunderground v.1.15,2013-05-30 15:22:00,
2013-05-30 10:27:00,78.7,68.5,24.24,SW,229,1.0,6.0,71,0.00,,,0.32,Wunderground v.1.15,2013-05-30 15:27:00,
2013-05-30 10:32:00,78.8,68.6,24.24,East,99,3.0,6.0,71,0.00,,,0.32,Wunderground v.1.15,2013-05-30 15:32:00,
2013-05-30 10:37:00,79.2,69.0,24.24,South,186,2.0,6.0,71,0.00,,,0.32,Wunderground v.1.15,2013-05-30 15:37:00,
2013-05-30 10:42:00,79.5,69.3,24.24,NE,40,1.0,7.0,71,0.00,,,0.32,Wunderground v.1.15,2013-05-30 15:42:00,
2013-05-30 10:48:00,79.8,69.6,24.24,NW,318,0.0,7.0,71,0.00,,,0.32,Wunderground v.1.15,2013-05-30 15:48:00,
2013-05-30 10:53:00,80.1,69.8,24.24,NW,322,0.0,2.0,71,0.00,,,0.32,Wunderground v.1.15,2013-05-30 15:53:00,
2013-05-30 10:58:00,80.4,68.9,24.24,SSW,201,1.0,5.0,68,0.00,,,0.32,Wunderground v.1.15,2013-05-30 15:58:00,
2013-05-30 11:03:00,80.2,69.1,24.24,NNE,21,1.0,3.0,69,0.00,,,0.32,Wunderground v.1.15,2013-05-30 16:03:00,
2013-05-30 11:08:00,79.9,68.4,24.24,SE,136,0.0,7.0,68,0.00,,,0.32,Wunderground v.1.15,2013-05-30 16:08:00,
2013-05-30 11:13:00,79.4,68.3,24.24,NW,323,0.0,10.0,69,0.00,,,0.32,Wunderground v.1.15,2013-05-30 16:13:00,
2013-05-30 11:18:00,79.2,68.6,24.24,SSE,148,0.0,10.0,70,0.00,,,0.32,Wunderground v.1.15,2013-05-30 16:18:00,
2013-05-30 11:23:00,79.2,68.6,24.29,SSE,154,1.0,13.0,70,0.00,,,0.32,Wunderground v.1.15,2013-05-30 16:23:00,
2013-05-30 11:28:00,79.1,68.9,24.46,NE,38,0.0,13.0,71,0.00,,,0.32,Wunderground v.1.15,2013-05-30 16:28:00,
2013-05-30 11:33:00,78.8,68.6,24.35,NNW,345,2.0,5.0,71,0.00,,,0.32,Wunderground v.1.15,2013-05-30 16:33:00,
2013-05-30 11:38:00,78.7,68.9,24.35,SW,220,0.0,6.0,72,0.00,,,0.32,Wunderground v.1.15,2013-05-30 16:38:00,
2013-05-30 11:43:00,78.8,69.0,24.36,SSW,213,0.0,2.0,72,0.00,,,0.32,Wunderground v.1.15,2013-05-30 16:43:00,
2013-05-30 11:48:00,78.7,68.9,24.35,ESE,119,2.0,9.0,72,0.00,,,0.32,Wunderground v.1.15,2013-05-30 16:48:00,
2013-05-30 11:53:00,78.7,68.9,24.39,WNW,300,0.0,3.0,72,0.00,,,0.32,Wunderground v.1.15,2013-05-30 16:53:00,
2013-05-30 11:58:00,78.6,68.4,24.39,West,273,1.0,6.0,71,0.00,,,0.32,Wunderground v.1.15,2013-05-30 16:58:00,
2013-05-30 12:03:00,78.4,68.6,24.27,ESE,108,0.0,5.0,72,0.00,,,0.32,Wunderground v.1.15,2013-05-30 17:03:00,
2013-05-30 12:08:00,78.2,68.0,24.27,WNW,285,2.0,7.0,71,0.00,,,0.32,Wunderground v.1.15,2013-05-30 17:08:00,
2013-05-30 12:13:00,78.1,68.3,24.24,SSE,167,0.0,2.0,72,0.00,,,0.32,Wunderground v.1.15,2013-05-30 17:13:00,
2013-05-30 12:18:00,78.4,69.0,24.24,WSW,242,0.0,2.0,73,0.00,,,0.32,Wunderground v.1.15,2013-05-30 17:18:00,
2013-05-30 12:23:00,79.2,69.8,24.24,SSW,207,1.0,5.0,73,0.00,,,0.32,Wunderground v.1.15,2013-05-30 17:23:00,
2013-05-30 12:28:00,79.5,68.9,24.24,NNE,33,2.0,7.0,70,0.00,,,0.32,Wunderground v.1.15,2013-05-30 17:28:00,
2013-05-30 12:33:00,79.6,69.4,24.24,NNW,340,0.0,5.0,71,0.00,,,0.32,Wunderground v.1.15,2013-05-30 17:33:00,
2013-05-30 12:38:00,79.9,70.1,24.24,NW,322,0.0,10.0,72,0.00,,,0.32,Wunderground v.1.15,2013-05-30 17:38:00,
2013-05-30 12:43:00,80.1,69.4,24.24,SE,140,0.0,6.0,70,0.00,,,0.32,Wunderground v.1.15,2013-05-30 17:43:00,
2013-05-30 12:48:00,80.6,70.7,24.24,ESE,109,0.0,6.0,72,0.00,,,0.32,Wunderground v.1.15,2013-05-30 17:48:00,
2013-05-30 12:53:00,80.9,69.8,24.24,SW,228,4.0,6.0,69,0.00,,,0.32,Wunderground v.1.15,2013-05-30 17:53:00,
2013-05-30 12:58:00,80.6,69.9,24.24,NNE,33,1.0,12.0,70,0.00,,,0.32,Wunderground v.1.15,2013-05-30 17:58:00,
2013-05-30 13:03:00,80.9,69.8,24.24,East,86,2.0,9.0,69,0.00,,,0.32,Wunderground v.1.15,2013-05-30 18:03:00,
2013-05-30 13:08:00,80.8,69.2,24.24,NE,47,1.0,9.0,68,0.00,,,0.32,Wunderground v.1.15,2013-05-30 18:08:00,
2013-05-30 13:13:00,80.7,69.2,24.24,NW,318,0.0,4.0,68,0.00,,,0.32,Wunderground v.1.15,2013-05-30 18:13:00,
2013-05-30 13:18:00,80.5,69.0,24.24,SE,142,1.0,13.0,68,0.00,,,0.32,Wunderground v.1.15,2013-05-30 18:18:00,
2013-05-30 13:23:00,80.1,68.6,24.24,West,278,1.0,6.0,68,0.00,,,0.32,Wunderground v.1.15,2013-05-30 18:23:00,
2013-05-30 13:28:00,79.7,68.6,24.24,SSW,193,3.0,10.0,69,0.00,,,0.32,Wunderground v.1.15,2013-05-30 18:28:00,
2013-05-30 13:33:00,79.3,68.2,24.24,ESE,117,0.0,12.0,69,0.00,,,0.32,Wunderground v.1.15,2013-05-30 18:33:00,
2013-05-30 13:38:00,79.0,68.0,24.24,SW,218,1.0,12.0,69,0.00,,,0.32,Wunderground v.1.15,2013-05-30 18:38:00,
2013-05-30 13:43:00,78.7,67.7,24.24,West,280,4.0,5.0,69,0.00,,,0.32,Wunderground v.1.15,2013-05-30 18:43:00,
2013-05-30 13:48:00,78.8,68.2,24.24,WSW,250,0.0,6.0,70,0.00,,,0.32,Wunderground v.1.15,2013-05-30 18:48:00,
2013-05-30 13:53:00,78.9,67.9,24.24,SSW,205,0.0,2.0,69,0.00,,,0.32,Wunderground v.1.15,2013-05-30 18:53:00,
2013-05-30 13:59:00,78.7,66.8,24.25,SSW,213,4.0,9.0,67,0.00,,,0.32,Wunderground v.1.15,2013-05-30 18:59:00,
2013-05-30 14:04:00,78.3,66.4,24.25,SW,236,0.0,7.0,67,0.00,,,0.32,Wunderground v.1.15,2013-05-30 19:04:00,
2013-05-30 14:09:00,77.9,66.1,24.25,ENE,65,1.0,7.0,67,0.00,,,0.32,Wunderground v.1.15,2013-05-30 19:09:00,
2013-05-30 14:14:00,77.6,65.3,24.25,WSW,248,1.0,6.0,66,0.00,,,0.32,Wunderground v.1.15,2013-05-30 19:14:00,
2013-05-30 14:19:00,77.5,65.2,24.25,WSW,237,2.0,6.0,66,0.00,,,0.32,Wunderground v.1.15,2013-05-30 19:19:00,
2013-05-30 14:24:00,77.7,65.9,24.25,NW,307,1.0,5.0,67,0.00,,,0.32,Wunderground v.1.15,2013-05-30 19:24:00,
2013-05-30 14:29:00,77.5,64.4,24.25,SW,227,0.0,7.0,64,0.00,,,0.32,Wunderground v.1.15,2013-05-30 19:29:00,
2013-05-30 14:34:00,77.1,64.4,24.25,SSE,159,5.0,6.0,65,0.00,,,0.32,Wunderground v.1.15,2013-05-30 19:34:00,
2013-05-30 14:39:00,76.8,65.0,24.25,NW,323,2.0,10.0,67,0.00,,,0.32,Wunderground v.1.15,2013-05-30 19:39:00,
2013-05-30 14:44:00,76.8,65.4,24.25,SW,233,0.0,7.0,68,0.00,,,0.32,Wunderground v.1.15,2013-05-30 19:44:00,
2013-05-30 14:49:00,76.4,65.1,24.25,NE,51,4.0,7.0,68,0.00,,,0.32,Wunderground v.1.15,2013-05-30 19:49:00,
2013-05-30 14:54:00,76.0,64.7,24.25,NW,313,0.0,6.0,68,0.00,,,0.32,Wunderground v.1.15,2013-05-30 19:54:00,
2013-05-30 14:59:00,75.6,64.7,24.25,NNW,345,2.0,6.0,69,0.00,,,0.32,Wunderground v.1.15,2013-05-30 19:59:00,
2013-05-30 15:04:00,75.2,63.9,24.25,East,79,3.0,10.0,68,0.00,,,0.32,Wunderground v.1.15,2013-05-30 20:04:00,
2013-05-30 15:09:00,74.5,63.7,24.25,NE,49,0.0,10.0,69,0.00,,,0.32,Wunderground v.1.15,2013-05-30 20:09:00,
2013-05-30 15:14:00,73.8,63.0,24.26,West,275,0.0,11.0,69,0.00,,,0.32,Wunderground v.1.15,2013-05-30 20:14:00,
2013-05-30 15:19:00,73.1,62.7,24.26,SSW,194,1.0,11.0,70,0.00,,,0.32,Wunderground v.1.15,2013-05-30 20:19:00,
2013-05-30 15:24:00,72.5,62.2,24.26,SE,138,0.0,4.0,70,0.00,,,0.32,Wunderground v.1.15,2013-05-30 20:24:00,
2013-05-30 15:29:00,72.0,62.1,24.26,NNE,24,0.0,4.0,71,0.00,,,0.32,Wunderground v.1.15,2013-05-30 20:29:00,
2013-05-30 15:34:00,71.6,61.7,24.26,SW,231,0.0,4.0,71,0.00,,,0.32,Wunderground v.1.15,2013-05-30 20:34:00,
2013-05-30 15:39:00,71.3,61.8,24.26,WSW,240,0.0,9.0,72,0.00,,,0.32,Wunderground v.1.15,2013-05-30 20:39:00,
2013-05-30 15:44:00,71.2,62.1,24.26,SSE,154,0.0,1.0,73,0.00,,,0.32,Wunderground v.1.15,2013-05-30 20:44:00,
2013-05-30 15:49:00,71.0,62.7,24.26,ENE,76,0.0,5.0,75,0.00,,,0.32,Wunderground v.1.15,2013-05-30 20:49:00,
2013-05-30 15:54:00,70.9,62.6,24.26,SW,229,1.0,3.0,75,0.00,,,0.32,Wunderground v.1.15,2013-05-30 20:54:00,
2013-05-30 15:59:00,70.8,62.9,24.26,NE,55,1.0,3.0,76,0.00,,,0.32,Wunderground v.1.15,2013-05-30 20:59:00,
2013-05-30 16:04:00,70.8,62.9,24.26,NE,46,0.0,2.0,76,0.00,,,0.32,Wunderground v.1.15,2013-05-30 21:04:00,
2013-05-30 16:09:00,70.8,63.2,24.26,NW,312,0.0,5.0,77,0.00,,,0.32,Wunderground v.1.15,2013-05-30 21:09:00,
2013-05-30 16:14:00,70.9,63.7,24.26,ESE,118,0.0,5.0,78,0.00,,,0.32,Wunderground v.1.15,2013-05-30 21:14:00,
2013-05-30 16:19:00,71.0,64.2,24.26,SW,227,0.0,5.0,79,0.00,,,0.32,Wunderground v.1.15,2013-05-30 21:19:00,
2013-05-30 16:25:00,71.2,64.7,24.26,SE,133,4.0,4.0,80,0.00,,,0.32,Wunderground v.1.15,2013-05-30 21:25:00,
2013-05-30 16:30:00,71.6,65.5,24.26,SW,217,2.0,2.0,81,0.00,,,0.32,Wunderground v.1.15,2013-05-30 21:30:00,
2013-05-30 16:35:00,72.1,65.9,24.26,South,178,0.0,4.0,81,0.00,,,0.32,Wunderground v.1.15,2013-05-30 21:35:00,
2013-05-30 16:39:00,72.3,66.1,24.26,NE,54,2.0,2.0,81,0.00,,,0.32,Wunderground v.1.15,2013-05-30 21:39:00,
2013-05-30 16:44:00,72.6,66.4,24.26,East,88,0.0,2.0,81,0.00,,,0.32,Wunderground v.1.15,2013-05-30 21:44:00,
2013-05-30 16:49:00,73.0,66.8,24.26,ENE,59,0.0,2.0,81,0.00,,,0.32,Wunderground v.1.15,2013-05-30 21:49:00,
2013-05-30 16:54:00,73.2,67.0,24.26,SW,227,0.0,11.0,81,0.00,,,0.32,Wunderground v.1.15,2013-05-30 21:54:00,
2013-05-30 16:59:00,73.3,67.1,24.26,SW,236,0.0,11.0,81,0.00,,,0.32,Wunderground v.1.15,2013-05-30 21:59:00,
2013-05-30 17:05:00,73.4,67.6,24.25,West,278,0.0,7.0,82,0.00,,,0.32,Wunderground v.1.15,2013-05-30 22:05:00,
2013-05-30 17:10:00,73.5,67.7,24.25,SW,229,1.0,1.0,82,0.00,,,0.32,Wunderground v.1.15,2013-05-30 22:10:00,
2013-05-30 17:15:00,73.6,67.8,24.25,SSW,195,0.0,7.0,82,0.00,,,0.32,Wunderground v.1.15,2013-05-30 22:15:00,
2013-05-30 17:20:00,73.7,68.2,24.25,South,187,1.0,1.0,83,0.00,,,0.33,Wunderground v.1.15,2013-05-30 22:20:00,
2013-05-30 17:25:00,73.7,68.2,24.26,ESE,102,0.0,4.0,83,0.00,,,0.33,Wunderground v.1.15,2013-05-30 22:25:00,
2013-05-30 17:30:00,73.5,68.4,24.25,SSW,197,0.0,1.0,84,0.00,,,0.33,Wunderground v.1.15,2013-05-30 22:30:00,
2013-05-30 17:35:00,73.4,68.3,24.26,SSW,207,0.0,3.0,84,0.00,,,0.33,Wunderground v.1.15,2013-05-30 22:35:00,
2013-05-30 17:40:00,73.2,68.1,24.26,NE,53,0.0,0.0,84,0.00,,,0.33,Wunderground v.1.15,2013-05-30 22:40:00,
2013-05-30 17:45:00,73.1,68.0,24.26,ENE,64,0.0,1.0,84,0.00,,,0.33,Wunderground v.1.15,2013-05-30 22:45:00,
2013-05-30 17:50:00,73.0,67.9,24.26,North,355,0.0,0.0,84,0.00,,,0.33,Wunderground v.1.15,2013-05-30 22:50:00,
2013-05-30 17:55:00,72.8,67.7,24.26,West,261,0.0,3.0,84,0.00,,,0.33,Wunderground v.1.15,2013-05-30 22:55:00,
2013-05-30 18:00:00,72.7,67.6,24.26,NE,47,0.0,0.0,84,0.00,,,0.33,Wunderground v.1.15,2013-05-30 23:00:00,
2013-05-30 18:05:00,72.6,67.8,24.26,South,178,0.0,5.0,85,0.00,,,0.33,Wunderground v.1.15,2013-05-30 23:05:00,
2013-05-30 18:10:00,72.5,67.7,24.26,NE,39,0.0,0.0,85,0.00,,,0.34,Wunderground v.1.15,2013-05-30 23:10:00,
2013-05-30 18:15:00,72.4,67.6,24.26,South,188,0.0,4.0,85,0.00,,,0.34,Wunderground v.1.15,2013-05-30 23:15:00,
2013-05-30 18:20:00,72.4,68.0,24.26,ENE,67,0.0,0.0,86,0.00,,,0.34,Wunderground v.1.15,2013-05-30 23:20:00,
2013-05-30 18:25:00,72.3,67.9,24.26,South,186,5.0,7.0,86,0.00,,,0.34,Wunderground v.1.15,2013-05-30 23:25:00,
2013-05-30 18:30:00,72.2,67.8,24.26,NNE,14,0.0,0.0,86,0.00,,,0.34,Wunderground v.1.15,2013-05-30 23:30:00,
2013-05-30 18:35:00,72.2,67.8,24.26,North,5,0.0,5.0,86,0.00,,,0.34,Wunderground v.1.15,2013-05-30 23:35:00,
2013-05-30 18:40:00,72.2,68.1,24.26,SE,142,0.0,1.0,87,0.00,,,0.34,Wunderground v.1.15,2013-05-30 23:40:00,
2013-05-30 18:45:00,72.2,68.1,24.26,WSW,253,0.0,1.0,87,0.00,,,0.34,Wunderground v.1.15,2013-05-30 23:45:00,
2013-05-30 18:50:00,72.1,68.0,24.26,SSW,202,0.0,2.0,87,0.00,,,0.34,Wunderground v.1.15,2013-05-30 23:50:00,
2013-05-30 18:55:00,72.1,67.7,24.26,NE,55,0.0,3.0,86,0.00,,,0.34,Wunderground v.1.15,2013-05-30 23:55:00,
2013-05-30 19:00:00,72.1,67.7,24.25,NE,54,0.0,1.0,86,0.00,,,0.34,Wunderground v.1.15,2013-05-31 00:00:00,
2013-05-30 19:05:00,72.1,67.7,24.25,ESE,106,0.0,1.0,86,0.00,,,0.34,Wunderground v.1.15,2013-05-31 00:05:00,
2013-05-30 19:10:00,72.0,67.6,24.25,SSW,204,0.0,2.0,86,0.00,,,0.34,Wunderground v.1.15,2013-05-31 00:10:00,
2013-05-30 19:15:00,72.0,67.6,24.25,SSW,200,0.0,2.0,86,0.00,,,0.34,Wunderground v.1.15,2013-05-31 00:15:00,
2013-05-30 19:20:00,71.9,67.5,24.25,SSW,204,0.0,1.0,86,0.00,,,0.34,Wunderground v.1.15,2013-05-31 00:20:00,
2013-05-30 19:25:00,71.8,67.0,24.25,WSW,244,0.0,10.0,85,0.00,,,0.34,Wunderground v.1.15,2013-05-31 00:25:00,
2013-05-30 19:30:00,71.7,66.9,24.26,West,264,1.0,1.0,85,0.00,,,0.34,Wunderground v.1.15,2013-05-31 00:30:00,
2013-05-30 19:35:00,71.7,66.9,24.26,SSW,203,0.0,3.0,85,0.00,,,0.34,Wunderground v.1.15,2013-05-31 00:35:00,
2013-05-30 19:40:00,71.7,66.9,24.26,ENE,61,0.0,0.0,85,0.00,,,0.34,Wunderground v.1.15,2013-05-31 00:40:00,
2013-05-30 19:45:00,71.7,66.9,24.26,WSW,253,0.0,6.0,85,0.00,,,0.34,Wunderground v.1.15,2013-05-31 00:45:00,
2013-05-30 19:50:00,71.7,66.9,24.26,East,84,0.0,1.0,85,0.00,,,0.34,Wunderground v.1.15,2013-05-31 00:50:00,
2013-05-30 19:55:00,71.7,66.9,24.26,ENE,76,0.0,3.0,85,0.00,,,0.34,Wunderground v.1.15,2013-05-31 00:55:00,
2013-05-30 20:00:00,71.7,66.9,24.25,South,184,0.0,0.0,85,0.00,,,0.34,Wunderground v.1.15,2013-05-31 01:00:00,
2013-05-30 20:05:00,71.6,66.8,24.25,NNE,19,0.0,2.0,85,0.00,,,0.34,Wunderground v.1.15,2013-05-31 01:05:00,
2013-05-30 20:10:00,71.6,66.8,24.25,SSW,206,0.0,1.0,85,0.00,,,0.34,Wunderground v.1.15,2013-05-31 01:10:00,
2013-05-30 20:15:00,71.6,66.8,24.25,SSW,206,0.0,1.0,85,0.00,,,0.34,Wunderground v.1.15,2013-05-31 01:15:00,
2013-05-30 20:20:00,71.6,66.8,24.25,SSW,206,0.0,0.0,85,0.00,,,0.34,Wunderground v.1.15,2013-05-31 01:20:00,
2013-05-30 20:25:00,71.6,67.2,24.25,SSW,207,0.0,1.0,86,0.00,,,0.34,Wunderground v.1.15,2013-05-31 01:25:00,
2013-05-30 20:30:00,71.6,67.2,24.25,SSW,207,0.0,0.0,86,0.00,,,0.34,Wunderground v.1.15,2013-05-31 01:30:00,
2013-05-30 20:35:00,71.6,67.2,24.25,SSW,206,0.0,0.0,86,0.00,,,0.34,Wunderground v.1.15,2013-05-31 01:35:00,
2013-05-30 20:41:00,71.6,67.2,24.25,East,92,0.0,0.0,86,0.00,,,0.34,Wunderground v.1.15,2013-05-31 01:41:00,
2013-05-30 20:46:00,71.6,67.2,24.25,ESE,105,0.0,1.0,86,0.00,,,0.34,Wunderground v.1.15,2013-05-31 01:46:00,
2013-05-30 20:51:00,71.6,67.2,24.25,ESE,105,0.0,0.0,86,0.00,,,0.34,Wunderground v.1.15,2013-05-31 01:51:00,
2013-05-30 20:56:00,71.5,67.1,24.25,ENE,61,0.0,3.0,86,0.00,,,0.34,Wunderground v.1.15,2013-05-31 01:56:00,
2013-05-30 21:01:00,71.5,67.1,24.25,WNW,291,0.0,0.0,86,0.00,,,0.34,Wunderground v.1.15,2013-05-31 02:01:00,
2013-05-30 21:06:00,71.6,67.2,24.25,WNW,291,0.0,0.0,86,0.00,,,0.34,Wunderground v.1.15,2013-05-31 02:06:00,
2013-05-30 21:11:00,71.6,67.2,24.25,WNW,291,0.0,0.0,86,0.00,,,0.34,Wunderground v.1.15,2013-05-31 02:11:00,
2013-05-30 21:16:00,71.6,67.2,24.25,WNW,291,0.0,0.0,86,0.00,,,0.34,Wunderground v.1.15,2013-05-31 02:16:00,
2013-05-30 21:22:00,71.7,67.3,24.24,NE,43,0.0,0.0,86,0.00,,,0.35,Wunderground v.1.15,2013-05-31 02:22:00,
2013-05-30 21:27:00,71.7,67.3,24.24,NE,42,0.0,0.0,86,0.00,,,0.35,Wunderground v.1.15,2013-05-31 02:27:00,
2013-05-30 21:32:00,71.7,67.6,24.24,SW,214,0.0,4.0,87,0.00,,,0.35,Wunderground v.1.15,2013-05-31 02:32:00,
2013-05-30 21:37:00,71.7,67.6,24.24,SW,215,0.0,4.0,87,0.00,,,0.35,Wunderground v.1.15,2013-05-31 02:37:00,
2013-05-30 21:42:00,71.7,67.6,24.24,SW,215,0.0,0.0,87,0.00,,,0.36,Wunderground v.1.15,2013-05-31 02:42:00,
2013-05-30 21:47:00,71.7,67.6,24.24,SW,214,0.0,0.0,87,0.00,,,0.36,Wunderground v.1.15,2013-05-31 02:47:00,
2013-05-30 21:52:00,71.6,67.5,24.24,SW,214,0.0,0.0,87,0.06,,,0.37,Wunderground v.1.15,2013-05-31 02:52:00,
2013-05-30 21:57:00,71.5,67.4,24.24,SW,215,0.0,0.0,87,0.09,,,0.38,Wunderground v.1.15,2013-05-31 02:57:00,
2013-05-30 22:02:00,71.3,67.2,24.25,SW,215,0.0,0.0,87,0.09,,,0.38,Wunderground v.1.15,2013-05-31 03:02:00,
2013-05-30 22:07:00,71.3,67.2,24.25,East,80,0.0,2.0,87,0.06,,,0.38,Wunderground v.1.15,2013-05-31 03:07:00,
2013-05-30 22:12:00,70.4,65.7,24.24,NE,34,1.0,7.0,85,4.68,,,0.58,Wunderground v.1.15,2013-05-31 03:12:00,
2013-05-30 22:17:00,68.7,63.7,24.25,NE,53,0.0,7.0,84,1.11,,,0.77,Wunderground v.1.15,2013-05-31 03:17:00,
2013-05-30 22:22:00,67.9,62.9,24.25,NE,53,0.0,1.0,84,0.32,,,0.85,Wunderground v.1.15,2013-05-31 03:22:00,
2013-05-30 22:27:00,67.2,62.5,24.25,NNW,348,0.0,1.0,85,0.15,,,0.86,Wunderground v.1.15,2013-05-31 03:27:00,
2013-05-30 22:32:00,66.7,62.0,24.25,North,360,0.0,1.0,85,0.07,,,0.86,Wunderground v.1.15,2013-05-31 03:32:00,
2013-05-30 22:37:00,66.1,61.8,24.25,ENE,60,0.0,1.0,86,0.04,,,0.86,Wunderground v.1.15,2013-05-31 03:37:00,
2013-05-30 22:42:00,65.7,61.7,24.25,ENE,60,0.0,0.0,87,0.00,,,0.86,Wunderground v.1.15,2013-05-31 03:42:00,
2013-05-30 22:47:00,65.4,61.4,24.25,ENE,60,0.0,0.0,87,0.00,,,0.86,Wunderground v.1.15,2013-05-31 03:47:00,
2013-05-30 22:52:00,65.1,61.5,24.25,ENE,60,0.0,0.0,88,0.00,,,0.86,Wunderground v.1.15,2013-05-31 03:52:00,
2013-05-30 22:57:00,64.9,61.3,24.25,ENE,60,0.0,0.0,88,0.00,,,0.86,Wunderground v.1.15,2013-05-31 03:57:00,
2013-05-30 23:01:00,64.8,61.2,24.25,ENE,60,0.0,0.0,88,0.00,,,0.86,Wunderground v.1.15,2013-05-31 04:01:00,
2013-05-30 23:06:00,64.6,61.3,24.25,ENE,60,0.0,0.0,89,0.00,,,0.86,Wunderground v.1.15,2013-05-31 04:06:00,
2013-05-30 23:11:00,64.4,61.1,24.25,ENE,60,0.0,0.0,89,0.00,,,0.86,Wunderground v.1.15,2013-05-31 04:11:00,
2013-05-30 23:16:00,64.3,61.0,24.25,ENE,60,0.0,1.0,89,0.00,,,0.86,Wunderground v.1.15,2013-05-31 04:16:00,
2013-05-30 23:21:00,64.1,61.1,24.25,ENE,60,0.0,0.0,90,0.00,,,0.86,Wunderground v.1.15,2013-05-31 04:21:00,
2013-05-30 23:26:00,64.0,61.0,24.25,ENE,60,0.0,0.0,90,0.00,,,0.86,Wunderground v.1.15,2013-05-31 04:26:00,
2013-05-30 23:31:00,64.0,61.0,24.25,ENE,60,0.0,0.0,90,0.00,,,0.86,Wunderground v.1.15,2013-05-31 04:31:00,
2013-05-30 23:36:00,63.9,60.9,24.25,ENE,60,0.0,0.0,90,0.00,,,0.86,Wunderground v.1.15,2013-05-31 04:36:00,
2013-05-30 23:41:00,63.9,60.9,24.25,ENE,60,0.0,0.0,90,0.00,,,0.86,Wunderground v.1.15,2013-05-31 04:41:00,
2013-05-30 23:46:00,63.8,61.1,24.25,ENE,60,0.0,0.0,91,0.00,,,0.86,Wunderground v.1.15,2013-05-31 04:46:00,
2013-05-30 23:51:00,63.8,61.1,24.25,ENE,60,0.0,0.0,91,0.00,,,0.86,Wunderground v.1.15,2013-05-31 04:51:00,
2013-05-30 23:56:00,63.7,61.0,24.25,ENE,60,0.0,0.0,91,0.00,,,0.86,Wunderground v.1.15,2013-05-31 04:56:00,